When you browse on this site, cookies collect data to enhance your experience and personalize the content and advertising you see.
Visit our Privacy Policy to learn more. By continuing to use the site, you agree to this use of cookies and data.
  • In Latvia
  • List of Countries
  • For 7 days
  • Water Temperature
  • Satellite Maps
  • Weather Map
  • Weather Widgets
  • user-avatar
    Login

    Hourly Weather Lankaran

    Today, 20 July, Saturday

    Time Temperature Precipitation Wind Pressure Humidity
    00:00 +16°C° 0 mm 1 mps 634 mmHg 65%
    01:00 +16°C° 0 mm 1 mps 634 mmHg 65%
    02:00 +16°C° 0 mm 2 mps 633 mmHg 64%
    03:00 +15°C° 0 mm 2 mps 633 mmHg 63%
    04:00 +16°C° 0 mm 2 mps 634 mmHg 61%
    05:00 +17°C° 0 mm 2 mps 635 mmHg 58%
    06:00 +17°C° 0 mm 2 mps 636 mmHg 55%
    07:00 +19°C° 0 mm 2 mps 636 mmHg 50%
    08:00 +21°C° 0 mm 3 mps 637 mmHg 44%
    09:00 +24°C° 0 mm 3 mps 638 mmHg 39%
    10:00 +25°C° 0 mm 4 mps 638 mmHg 37%
    11:00 +26°C° 0 mm 4 mps 638 mmHg 36%
    12:00 +26°C° 0 mm 5 mps 638 mmHg 34%
    13:00 +26°C° 0 mm 5 mps 638 mmHg 35%
    14:00 +26°C° 0 mm 5 mps 637 mmHg 35%
    15:00 +25°C° 0 mm 5 mps 637 mmHg 36%
    16:00 +23°C° 0 mm 4 mps 636 mmHg 39%
    17:00 +22°C° 0 mm 3 mps 636 mmHg 41%
    18:00 +21°C° 0 mm 3 mps 636 mmHg 44%
    19:00 +19°C° 0 mm 2 mps 636 mmHg 47%
    20:00 +18°C° 0 mm 2 mps 635 mmHg 50%
    21:00 +16°C° 0 mm 2 mps 635 mmHg 54%
    22:00 +16°C° 0 mm 1 mps 635 mmHg 55%
    23:00 +16°C° 0 mm 1 mps 636 mmHg 57%

    Tomorrow, 21 July, Sunday

    Time Temperature Precipitation Wind Pressure Humidity
    00:00 +16°C° 0 mm 1 mps 636 mmHg 58%
    01:00 +16°C° 0 mm 1 mps 636 mmHg 60%
    02:00 +16°C° 0 mm 1 mps 635 mmHg 61%
    03:00 +16°C° 0 mm 1 mps 635 mmHg 63%
    04:00 +18°C° 0 mm 1 mps 636 mmHg 59%
    05:00 +18°C° 0 mm 1 mps 636 mmHg 56%
    06:00 +19°C° 0 mm 1 mps 637 mmHg 53%
    07:00 +21°C° 0 mm 1 mps 637 mmHg 48%
    08:00 +23°C° 0 mm 2 mps 638 mmHg 43%
    09:00 +25°C° 0 mm 2 mps 638 mmHg 38%
    10:00 +27°C° 0 mm 3 mps 638 mmHg 36%
    11:00 +28°C° 0 mm 3 mps 638 mmHg 34%
    12:00 +29°C° 0 mm 3 mps 638 mmHg 32%
    13:00 +29°C° 0 mm 4 mps 637 mmHg 33%
    14:00 +29°C° 0 mm 4 mps 637 mmHg 33%
    15:00 +29°C° 0 mm 4 mps 636 mmHg 33%
    16:00 +28°C° 0 mm 3 mps 636 mmHg 37%
    17:00 +27°C° 0 mm 3 mps 635 mmHg 41%
    18:00 +26°C° 0 mm 2 mps 635 mmHg 45%
    19:00 +24°C° 0 mm 2 mps 635 mmHg 46%
    20:00 +22°C° 0 mm 1 mps 634 mmHg 48%
    21:00 +19°C° 0 mm 0 mps 634 mmHg 49%
    22:00 +19°C° 0 mm 0 mps 634 mmHg 48%
    23:00 +21°C° 0 mm 1 mps 634 mmHg 46%

    Day after tomorrow, 22 July, Monday

    Time Temperature Precipitation Wind Pressure Humidity
    00:00 +21°C° 0 mm 1 mps 634 mmHg 45%
    01:00 +20°C° 0 mm 1 mps 633 mmHg 46%
    02:00 +18°C° 0 mm 0 mps 633 mmHg 48%
    03:00 +18°C° 0 mm 0 mps 633 mmHg 49%
    04:00 +19°C° 0 mm 0 mps 633 mmHg 47%
    05:00 +20°C° 0 mm 0 mps 634 mmHg 45%
    06:00 +21°C° 0 mm 0 mps 634 mmHg 43%
    07:00 +25°C° 0 mm 1 mps 635 mmHg 40%
    08:00 +27°C° 0 mm 2 mps 635 mmHg 37%
    09:00 +28°C° 0 mm 3 mps 636 mmHg 34%
    10:00 +29°C° 0 mm 3 mps 636 mmHg 34%
    11:00 +30°C° 0 mm 4 mps 636 mmHg 35%
    12:00 +30°C° 0 mm 4 mps 636 mmHg 35%
    13:00 +30°C° 0 mm 4 mps 636 mmHg 38%
    14:00 +29°C° 0 mm 4 mps 635 mmHg 42%
    15:00 +28°C° 0 mm 4 mps 634 mmHg 45%
    16:00 +27°C° 0 mm 4 mps 634 mmHg 49%
    17:00 +25°C° 0 mm 3 mps 634 mmHg 54%
    18:00 +24°C° 0 mm 2 mps 633 mmHg 58%
    19:00 +23°C° 0 mm 2 mps 633 mmHg 60%
    20:00 +22°C° 0 mm 1 mps 633 mmHg 61%
    21:00 +21°C° 0 mm 1 mps 633 mmHg 63%
    22:00 +21°C° 0 mm 1 mps 633 mmHg 63%
    23:00 +19°C° 0 mm 2 mps 632 mmHg 63%

    23 July, Tuesday

    Time Temperature Precipitation Wind Pressure Humidity
    00:00 +18°C° 0 mm 2 mps 632 mmHg 63%
    01:00 +18°C° 0 mm 2 mps 632 mmHg 65%
    02:00 +17°C° 0 mm 2 mps 632 mmHg 67%
    03:00 +17°C° 0 mm 3 mps 631 mmHg 68%
    04:00 +17°C° 0 mm 2 mps 632 mmHg 66%
    05:00 +17°C° 0 mm 2 mps 632 mmHg 63%
    06:00 +17°C° 0 mm 2 mps 632 mmHg 60%
    07:00 +19°C° 0 mm 3 mps 633 mmHg 56%
    08:00 +20°C° 0 mm 3 mps 633 mmHg 52%
    09:00 +22°C° 0 mm 3 mps 633 mmHg 48%
    10:00 +23°C° 0 mm 4 mps 633 mmHg 46%
    11:00 +25°C° 0 mm 4 mps 633 mmHg 44%
    12:00 +26°C° 0 mm 4 mps 633 mmHg 42%
    13:00 +26°C° 0 mm 4 mps 633 mmHg 42%
    14:00 +26°C° 0 mm 4 mps 632 mmHg 42%
    15:00 +26°C° 0 mm 4 mps 632 mmHg 42%
    16:00 +24°C° 0 mm 3 mps 632 mmHg 46%
    17:00 +22°C° 0 mm 3 mps 631 mmHg 51%
    18:00 +21°C° 0 mm 2 mps 631 mmHg 55%
    19:00 +20°C° 0 mm 2 mps 631 mmHg 56%
    20:00 +19°C° 0 mm 2 mps 631 mmHg 57%
    21:00 +19°C° 0 mm 2 mps 631 mmHg 58%
    22:00 +18°C° 0 mm 2 mps 631 mmHg 59%
    23:00 +18°C° 0 mm 2 mps 630 mmHg 61%

    24 July, Wednesday

    Time Temperature Precipitation Wind Pressure Humidity
    00:00 +17°C° 0 mm 2 mps 630 mmHg 62%
    01:00 +18°C° 0 mm 1 mps 630 mmHg 63%
    02:00 +16°C° 0 mm 1 mps 630 mmHg 64%
    03:00 +16°C° 0 mm 1 mps 630 mmHg 65%
    04:00 +16°C° 0 mm 1 mps 630 mmHg 62%
    05:00 +18°C° 0 mm 1 mps 631 mmHg 60%
    06:00 +19°C° 0 mm 1 mps 631 mmHg 57%
    07:00 +20°C° 0 mm 1 mps 632 mmHg 51%
    08:00 +21°C° 0 mm 2 mps 633 mmHg 46%
    09:00 +24°C° 0 mm 2 mps 633 mmHg 40%
    10:00 +25°C° 0 mm 2 mps 633 mmHg 38%
    11:00 +27°C° 0 mm 3 mps 633 mmHg 36%
    12:00 +28°C° 0 mm 3 mps 633 mmHg 33%
    13:00 +28°C° 0 mm 3 mps 633 mmHg 33%
    14:00 +28°C° 0 mm 3 mps 633 mmHg 34%
    15:00 +29°C° 0 mm 3 mps 632 mmHg 34%
    16:00 +27°C° 0 mm 3 mps 632 mmHg 38%
    17:00 +26°C° 0 mm 2 mps 632 mmHg 42%
    18:00 +24°C° 0 mm 2 mps 631 mmHg 46%
    19:00 +23°C° 0 mm 1 mps 631 mmHg 49%
    20:00 +22°C° 0 mm 1 mps 631 mmHg 52%
    21:00 +18°C° 0 mm 0 mps 631 mmHg 56%
    22:00 +18°C° 0 mm 0 mps 631 mmHg 54%
    23:00 +20°C° 0 mm 1 mps 631 mmHg 52%

    25 July, Thursday

    Time Temperature Precipitation Wind Pressure Humidity
    00:00 +20°C° 0 mm 1 mps 631 mmHg 51%
    01:00 +20°C° 0 mm 1 mps 631 mmHg 50%
    02:00 +20°C° 0 mm 1 mps 631 mmHg 49%
    03:00 +18°C° 0 mm 0 mps 630 mmHg 49%
    04:00 +18°C° 0 mm 0 mps 631 mmHg 48%
    05:00 +19°C° 0 mm 0 mps 632 mmHg 47%
    06:00 +20°C° 0 mm 0 mps 632 mmHg 46%
    07:00 +24°C° 0 mm 1 mps 633 mmHg 43%
    08:00 +26°C° 0 mm 2 mps 633 mmHg 39%
    09:00 +27°C° 0 mm 3 mps 634 mmHg 36%
    10:00 +28°C° 0 mm 3 mps 634 mmHg 35%
    11:00 +29°C° 0 mm 4 mps 634 mmHg 34%
    12:00 +30°C° 0 mm 4 mps 634 mmHg 33%
    13:00 +30°C° 0 mm 4 mps 633 mmHg 33%
    14:00 +29°C° 0 mm 4 mps 633 mmHg 34%
    15:00 +29°C° 0 mm 4 mps 632 mmHg 34%
    16:00 +27°C° 0 mm 4 mps 632 mmHg 38%
    17:00 +26°C° 0 mm 3 mps 631 mmHg 42%
    18:00 +24°C° 0 mm 3 mps 631 mmHg 46%
    19:00 +23°C° 0 mm 2 mps 630 mmHg 49%
    20:00 +21°C° 0 mm 1 mps 630 mmHg 52%
    21:00 +18°C° 0 mm 0 mps 630 mmHg 55%
    22:00 +18°C° 0 mm 0 mps 630 mmHg 55%
    23:00 +17°C° 0 mm 0 mps 629 mmHg 55%
    Show more